Weather History for Palma De Mallorca / Son San Juan, Spain

Change the Weather History Date:

Monday, June 10, 2013

  Actual Average Record
Temperature  
Mean Temperature 69 °F -  
Max Temperature 81 °F 82 °F - ()
Min Temperature 57 °F 61 °F - ()
Cooling Degree Days 4    
Growing Degree Days 19 (Base 50)    
Moisture  
Dew Point 56 °F    
Average Humidity 59    
Maximum Humidity 94    
Minimum Humidity 27    
Precipitation  
Precipitation 0.00 in 0.02 in - ()
Sea Level Pressure  
Sea Level Pressure 29.96 in    
Wind  
Wind Speed 6 mph ()    
Max Wind Speed 13 mph    
Max Gust Speed -    
Visibility 6.8 miles    
Events      
T = Trace of Precipitation, MM = Missing Value Source: Averaged Metar Reports

Daily Weather History Graph

Daily Weather History Graph

Search for Another Location

Airport:

Trip Planner

Search our weather history database for the weather conditions in past years. The results will help you decide how hot, cold, wet, or windy it might be!

Date:

Astronomy

Jun. 10, 2013 Rise Set
Actual Time 6:21 AM CEST 9:16 PM CEST
Civil Twilight 5:48 AM CEST 9:48 PM CEST
Nautical Twilight 5:08 AM CEST 10:29 PM CEST
Astronomical Twilight 4:21 AM CEST 11:16 PM CEST
Moon 7:55 AM CEST (6/10) 10:33 PM CEST (6/10)
Length of Visible Light 15h 59m
Length of Day
14h 54m
Waxing Crescent, 3% of the Moon is Illuminated
Jun 10
Waxing Crescent
Jun 16
First Quarter
Jun 23
Full
Jun 30
Last Quarter
Jul 8
New

Hourly Weather History & Observations

Time (CEST) Temp. Heat Index Dew Point Humidity Pressure Visibility Wind Dir Wind Speed Gust Speed Precip Events Conditions
12:00 AM 68.0 °F - 59.0 °F 73% 29.92 in 6.2 mi SW 9.2 mph - N/A   Partly Cloudy
12:30 AM 68.0 °F - 59.0 °F 73% 29.92 in 6.2 mi WSW 8.1 mph - N/A   Partly Cloudy
1:00 AM 68.0 °F - 59.0 °F 73% 29.92 in 6.2 mi WSW 8.1 mph - N/A   Partly Cloudy
1:30 AM 68.0 °F - 59.0 °F 73% 29.92 in 6.2 mi WSW 6.9 mph - N/A   Partly Cloudy
2:00 AM 67 °F - 57 °F 62% 29.92 in 12 mi SW 9.2 mph - -   Clear
2:00 AM 66.2 °F - 57.2 °F 73% 29.92 in - SSW 3.5 mph - N/A   Clear
2:30 AM 68.0 °F - 59.0 °F 73% 29.92 in - South 3.5 mph - N/A   Clear
3:00 AM 68.0 °F - 57.2 °F 68% 29.89 in - South 5.8 mph - N/A   Clear
3:30 AM 66.2 °F - 57.2 °F 73% 29.89 in - SSE 2.3 mph - N/A   Clear
4:00 AM 60.8 °F - 57.2 °F 88% 29.92 in - Variable 1.2 mph - N/A   Clear
4:30 AM 59.0 °F - 57.2 °F 94% 29.92 in - ENE 3.5 mph - N/A   Clear
5:00 AM 60.8 °F - 57.2 °F 88% 29.89 in - Variable 1.2 mph - N/A   Clear
5:30 AM 59.0 °F - 55.4 °F 88% 29.89 in 6.2 mi Variable 1.2 mph - N/A   Partly Cloudy
6:00 AM 59.0 °F - 57.2 °F 94% 29.92 in 6.2 mi Variable 1.2 mph - N/A   Partly Cloudy
6:30 AM 59.0 °F - 55.4 °F 88% 29.92 in 6.2 mi Calm Calm - N/A   Partly Cloudy
7:00 AM 64.4 °F - 57.2 °F 77% 29.92 in 6.2 mi Variable 1.2 mph - N/A   Partly Cloudy
7:30 AM 64.4 °F - 57.2 °F 77% 29.92 in 6.2 mi Variable 2.3 mph - N/A   Partly Cloudy
8:00 AM 68 °F - 56 °F 56% 29.94 in 16 mi West 6.9 mph - -   Scattered Clouds
8:00 AM 68.0 °F - 57.2 °F 68% 29.92 in 6.2 mi West 5.8 mph - N/A   Partly Cloudy
8:30 AM 69.8 °F - 57.2 °F 64% 29.95 in 6.2 mi WNW 8.1 mph - N/A   Partly Cloudy
9:00 AM 69.8 °F - 55.4 °F 60% 29.95 in 6.2 mi NW 6.9 mph - N/A   Partly Cloudy
9:30 AM 71.6 °F - 55.4 °F 57% 29.95 in 6.2 mi NW 6.9 mph - N/A   Partly Cloudy
10:00 AM 73.4 °F - 55.4 °F 53% 29.95 in 6.2 mi NW 10.4 mph - N/A   Partly Cloudy
10:30 AM 73.4 °F - 53.6 °F 50% 29.95 in 6.2 mi NW 6.9 mph - N/A   Partly Cloudy
11:00 AM 75.2 °F - 53.6 °F 47% 29.95 in 6.2 mi NW 6.9 mph - N/A   Partly Cloudy
11:30 AM 77.0 °F - 53.6 °F 44% 29.98 in 6.2 mi NW 8.1 mph - N/A   Partly Cloudy
12:00 PM 78.8 °F - 53.6 °F 42% 29.98 in 6.2 mi WNW 6.9 mph - N/A   Partly Cloudy
12:30 PM 78.8 °F - 55.4 °F 44% 29.98 in 6.2 mi WNW 9.2 mph - N/A   Scattered Clouds
1:00 PM 80.6 °F - 51.8 °F 37% 29.98 in 6.2 mi WSW 12.7 mph - N/A   Scattered Clouds
1:30 PM 78.8 °F - 53.6 °F 42% 29.98 in 6.2 mi SW 10.4 mph - N/A   Scattered Clouds
2:00 PM 81 °F - 53 °F 27% 29.99 in 19 mi SW 11.5 mph - -   Mostly Cloudy
2:00 PM 80.6 °F 80.3 °F 53.6 °F 39% 29.98 in 6.2 mi WSW 9.2 mph - N/A   Scattered Clouds
2:30 PM 78.8 °F - 53.6 °F 42% 29.98 in 6.2 mi WSW 10.4 mph - N/A   Scattered Clouds
3:00 PM 80.6 °F 80.3 °F 53.6 °F 39% 29.98 in 6.2 mi WSW 9.2 mph - N/A   Scattered Clouds
3:30 PM 78.8 °F - 51.8 °F 39% 29.98 in 6.2 mi SSW 8.1 mph - N/A   Scattered Clouds
4:00 PM 78.8 °F - 51.8 °F 39% 30.01 in 6.2 mi West 4.6 mph - N/A   Scattered Clouds
4:30 PM 78.8 °F - 51.8 °F 39% 29.98 in 6.2 mi West 4.6 mph - N/A   Scattered Clouds
5:00 PM 80.6 °F - 51.8 °F 37% 29.98 in 6.2 mi SW 8.1 mph - N/A   Scattered Clouds
5:30 PM 80.6 °F - 50.0 °F 34% 29.98 in 6.2 mi SW 4.6 mph - N/A   Scattered Clouds
6:00 PM 80.6 °F - 51.8 °F 37% 29.98 in 6.2 mi SSW 6.9 mph - N/A   Scattered Clouds
6:30 PM 80.6 °F 80.3 °F 53.6 °F 39% 29.98 in 6.2 mi SSW 8.1 mph - N/A   Scattered Clouds
7:00 PM 80.6 °F - 51.8 °F 37% 29.98 in 6.2 mi SW 8.1 mph - N/A   Scattered Clouds
7:30 PM 78.8 °F - 51.8 °F 39% 29.98 in 6.2 mi SW 11.5 mph - N/A   Partly Cloudy
8:00 PM 75.2 °F - 55.4 °F 50% 29.98 in 6.2 mi SW 8.1 mph - N/A   Partly Cloudy
8:30 PM 73.4 °F - 55.4 °F 53% 30.01 in 6.2 mi SSW 6.9 mph - N/A   Partly Cloudy
9:00 PM 71.6 °F - 59.0 °F 64% 30.01 in 6.2 mi SSW 10.4 mph - N/A   Partly Cloudy
9:30 PM 69.8 °F - 57.2 °F 64% 30.01 in 6.2 mi SSW 12.7 mph - N/A   Partly Cloudy
10:00 PM 69.8 °F - 57.2 °F 64% 30.04 in 6.2 mi SSW 5.8 mph - N/A   Partly Cloudy
10:30 PM 69.8 °F - 59.0 °F 68% 30.04 in 6.2 mi SSW 5.8 mph - N/A   Partly Cloudy
11:00 PM 68.0 °F - 59.0 °F 73% 30.04 in 6.2 mi SSW 5.8 mph - N/A   Partly Cloudy
11:30 PM 68.0 °F - 60.8 °F 78% 30.06 in 6.2 mi SSW 3.5 mph - N/A   Partly Cloudy